�������l�o���
Date,Time,MP-1(��Sv/h),MP-2(��Sv/h),MP-3(��Sv/h),MP-4(��Sv/h),MP-5(��Sv/h),MP-6(��Sv/h),MP-7(��Sv/h),MP-8(��Sv/h),����,����(m/s),���J
2022/09/23,00:00,0.572,0.812,0.524,1.024,0.720,0.335,0.585,0.552,�k�k��,5.1,�L
2022/09/23,00:10,0.571,0.813,0.525,1.022,0.721,0.336,0.585,0.555,�k�k��,5.7,�L
2022/09/23,00:20,0.572,0.813,0.524,1.023,0.720,0.335,0.585,0.554,�k�k��,5.4,�L
2022/09/23,00:30,0.571,0.811,0.527,1.023,0.719,0.336,0.585,0.552,�k�k��,4.9,�L
2022/09/23,00:40,0.570,0.811,0.526,1.023,0.719,0.335,0.585,0.554,�k�k��,5.0,�L
2022/09/23,00:50,0.571,0.810,0.526,1.021,0.720,0.335,0.584,0.554,�k�k��,4.8,�L
2022/09/23,01:00,0.570,0.810,0.524,1.021,0.718,0.335,0.584,0.553,�k�k��,4.2,�L
2022/09/23,01:10,0.570,0.808,0.525,1.022,0.720,0.334,0.584,0.554,�k��,4.2,�L
2022/09/23,01:20,0.572,0.809,0.524,1.022,0.718,0.335,0.585,0.553,�k��,4.6,��
2022/09/23,01:30,0.569,0.811,0.525,1.020,0.718,0.336,0.583,0.555,�k��,5.1,�L
2022/09/23,01:40,0.571,0.808,0.524,1.021,0.720,0.336,0.585,0.554,�k��,5.2,��
2022/09/23,01:50,0.570,0.809,0.524,1.022,0.718,0.335,0.584,0.553,�k�k��,5.3,��
2022/09/23,02:00,0.568,0.808,0.524,1.021,0.718,0.335,0.583,0.553,�k�k��,5.1,��
2022/09/23,02:10,0.570,0.811,0.523,1.021,0.718,0.335,0.584,0.554,�k�k��,5.5,��
2022/09/23,02:20,0.571,0.809,0.525,1.019,0.718,0.336,0.584,0.554,�k�k��,5.0,��
2022/09/23,02:30,0.572,0.809,0.522,1.020,0.718,0.335,0.585,0.554,�k�k��,4.7,�L
2022/09/23,02:40,0.570,0.809,0.525,1.018,0.719,0.336,0.583,0.553,�k�k��,5.2,�L
2022/09/23,02:50,0.570,0.810,0.523,1.018,0.718,0.335,0.583,0.555,�k�k��,5.7,�L
2022/09/23,03:00,0.569,0.810,0.524,1.019,0.718,0.337,0.585,0.554,�k�k��,6.2,��
2022/09/23,03:10,0.571,0.810,0.524,1.021,0.718,0.336,0.584,0.555,�k�k��,6.2,��
2022/09/23,03:20,0.570,0.811,0.524,1.021,0.718,0.335,0.586,0.554,�k�k��,6.0,��
2022/09/23,03:30,0.570,0.809,0.524,1.021,0.718,0.334,0.584,0.554,�k�k��,6.0,��
2022/09/23,03:40,0.571,0.809,0.524,1.019,0.718,0.336,0.585,0.553,�k�k��,5.9,��
2022/09/23,03:50,0.569,0.809,0.524,1.021,0.720,0.335,0.585,0.553,�k�k��,5.7,��
2022/09/23,04:00,0.571,0.810,0.523,1.021,0.718,0.335,0.585,0.553,�k�k��,5.5,��
2022/09/23,04:10,0.569,0.809,0.523,1.019,0.719,0.335,0.585,0.554,�k�k��,5.3,��
2022/09/23,04:20,0.570,0.809,0.523,1.021,0.719,0.336,0.585,0.552,�k�k��,4.4,��
2022/09/23,04:30,0.571,0.811,0.525,1.019,0.718,0.334,0.586,0.552,�k�k��,5.0,��
2022/09/23,04:40,0.570,0.809,0.524,1.021,0.719,0.335,0.585,0.552,�k�k��,4.2,��
2022/09/23,04:50,0.571,0.809,0.524,1.021,0.718,0.335,0.583,0.553,�k�k��,3.8,��
2022/09/23,05:00,0.569,0.811,0.525,1.021,0.719,0.336,0.586,0.553,�k�k��,4.5,��
2022/09/23,05:10,0.571,0.810,0.524,1.021,0.719,0.335,0.585,0.553,�k�k��,3.8,��
2022/09/23,05:20,0.570,0.812,0.525,1.021,0.719,0.337,0.586,0.554,�k�k��,4.0,��
2022/09/23,05:30,0.570,0.810,0.525,1.021,0.720,0.336,0.585,0.553,�k�k��,5.5,��
2022/09/23,05:40,0.572,0.810,0.524,1.021,0.719,0.335,0.586,0.555,�k�k��,5.5,��
2022/09/23,05:50,0.570,0.808,0.526,1.022,0.719,0.335,0.585,0.552,�k�k��,5.0,��
2022/09/23,06:00,0.572,0.809,0.526,1.021,0.717,0.335,0.584,0.552,�k�k��,5.2,��
2022/09/23,06:10,0.571,0.810,0.525,1.024,0.719,0.336,0.585,0.554,�k�k��,4.4,��
2022/09/23,06:20,0.571,0.810,0.525,1.021,0.719,0.336,0.585,0.553,�k�k��,3.5,�L
2022/09/23,06:30,0.570,0.811,0.525,1.022,0.719,0.336,0.584,0.552,�k�k��,3.3,�L
2022/09/23,06:40,0.570,0.809,0.526,1.022,0.719,0.337,0.588,0.553,�k�k��,3.5,�L
2022/09/23,06:50,0.572,0.810,0.525,1.024,0.721,0.336,0.586,0.553,�k�k��,3.0,�L
2022/09/23,07:00,0.569,0.810,0.526,1.022,0.719,0.336,0.585,0.554,�k,2.9,�L
2022/09/23,07:10,0.571,0.812,0.525,1.022,0.719,0.335,0.587,0.553,�k,3.5,�L
2022/09/23,07:20,0.569,0.810,0.526,1.022,0.719,0.336,0.585,0.553,�k�k��,4.0,�L
2022/09/23,07:30,0.570,0.809,0.526,1.022,0.717,0.334,0.587,0.554,�k��,4.1,��
2022/09/23,07:40,0.570,0.809,0.527,1.022,0.721,0.336,0.587,0.553,�k��,2.6,��
2022/09/23,07:50,0.570,0.811,0.525,1.020,0.719,0.336,0.588,0.554,�k�k��,2.3,��
2022/09/23,08:00,0.569,0.808,0.525,1.023,0.719,0.335,0.587,0.553,�k�k��,3.0,�L
2022/09/23,08:10,0.569,0.811,0.526,1.023,0.719,0.335,0.585,0.553,�k�k��,3.3,�L
2022/09/23,08:20,0.570,0.811,0.525,1.021,0.719,0.334,0.587,0.551,�k,2.9,�L
2022/09/23,08:30,0.571,0.809,0.523,1.020,0.717,0.335,0.584,0.553,�k,3.3,�L
2022/09/23,08:40,0.570,0.807,0.523,1.019,0.712,0.333,0.583,0.552,�k�k��,2.5,�L
2022/09/23,08:50,0.567,0.806,0.522,1.020,0.708,0.331,0.583,0.549,�k,3.3,�L
2022/09/23,09:00,0.563,0.800,0.518,1.015,0.704,0.329,0.582,0.550,�k,3.9,�L
2022/09/23,09:10,0.563,0.795,0.519,1.014,0.703,0.332,0.581,0.549,�k,4.3,�L
2022/09/23,09:20,0.563,0.796,0.517,1.012,0.703,0.332,0.580,0.549,�k�k��,4.6,�L
2022/09/23,09:30,0.560,0.791,0.514,1.008,0.701,0.331,0.582,0.547,�k�k��,4.6,�L
2022/09/23,09:40,0.559,0.791,0.515,1.008,0.703,0.330,0.580,0.548,�k�k��,4.6,�L
2022/09/23,09:50,0.560,0.788,0.512,1.003,0.696,0.331,0.581,0.548,�k�k��,4.7,�L
2022/09/23,10:00,0.560,0.789,0.512,1.000,0.698,0.330,0.580,0.547,�k�k��,5.6,�L
2022/09/23,10:10,0.561,0.791,0.514,1.000,0.699,0.329,0.580,0.547,�k�k��,4.4,��
2022/09/23,10:20,0.562,0.789,0.514,1.003,0.699,0.330,0.581,0.548,�k�k��,5.7,��
2022/09/23,10:30,0.562,0.792,0.516,1.002,0.700,0.330,0.583,0.548,�k�k��,5.2,��
2022/09/23,10:40,0.564,0.793,0.515,1.003,0.701,0.331,0.581,0.548,�k�k��,5.2,��
2022/09/23,10:50,0.565,0.790,0.514,1.003,0.701,0.331,0.581,0.547,�k�k��,5.5,��
2022/09/23,11:00,0.563,0.794,0.514,1.004,0.703,0.332,0.582,0.548,�k,5.5,��
2022/09/23,11:10,0.564,0.793,0.515,1.006,0.705,0.332,0.581,0.548,�k,4.8,��
2022/09/23,11:20,0.564,0.795,0.517,1.009,0.704,0.331,0.581,0.547,�k,4.5,��
2022/09/23,11:30,0.565,0.794,0.516,1.004,0.702,0.332,0.582,0.549,�k,3.4,��
2022/09/23,11:40,0.565,0.794,0.518,1.005,0.707,0.332,0.583,0.550,�k,3.8,��
2022/09/23,11:50,0.564,0.797,0.518,1.004,0.707,0.332,0.582,0.550,�k,3.7,��
2022/09/23,12:00,0.565,0.796,0.516,1.003,0.706,0.331,0.583,0.548,�k,4.4,��
2022/09/23,12:10,0.567,0.798,0.518,1.003,0.707,0.332,0.583,0.550,�k,4.7,��
2022/09/23,12:20,0.566,0.797,0.519,1.004,0.705,0.333,0.581,0.551,�k,5.0,��
2022/09/23,12:30,0.566,0.798,0.517,1.003,0.707,0.333,0.584,0.550,�k,4.8,��
2022/09/23,12:40,0.566,0.798,0.520,1.003,0.706,0.334,0.583,0.549,�k,5.2,��
2022/09/23,12:50,0.567,0.797,0.518,1.004,0.708,0.332,0.583,0.549,�k,4.6,��
2022/09/23,13:00,0.566,0.799,0.519,1.002,0.708,0.332,0.583,0.551,�k�k��,3.5,��
2022/09/23,13:10,0.567,0.800,0.519,1.004,0.708,0.332,0.582,0.549,�k�k��,2.5,��
2022/09/23,13:20,0.568,0.798,0.518,1.003,0.708,0.333,0.581,0.549,�k��,1.4,��
2022/09/23,13:30,0.568,0.799,0.520,1.005,0.709,0.334,0.583,0.549,�k��,0.8,��
2022/09/23,13:40,0.566,0.798,0.520,1.006,0.710,0.332,0.583,0.550,�k�k��,0.8,��
2022/09/23,13:50,0.567,0.798,0.520,1.008,0.709,0.332,0.584,0.551,�k��,1.2,��
2022/09/23,14:00,0.567,0.798,0.517,1.007,0.709,0.334,0.584,0.550,�k�k��,0.6,��
2022/09/23,14:10,0.566,0.800,0.520,1.006,0.708,0.333,0.583,0.549,-,CALM,�L
2022/09/23,14:20,0.566,0.797,0.519,1.008,0.710,0.335,0.583,0.549,-,CALM,�L
2022/09/23,14:30,0.566,0.799,0.520,1.009,0.711,0.335,0.584,0.550,-,CALM,��
2022/09/23,14:40,0.567,0.800,0.520,1.007,0.711,0.332,0.581,0.551,��,1.7,��
2022/09/23,14:50,0.567,0.799,0.521,1.007,0.712,0.332,0.583,0.549,��,1.2,��
2022/09/23,15:00,0.568,0.800,0.521,1.009,0.711,0.331,0.583,0.551,��,2.0,��
2022/09/23,15:10,0.569,0.799,0.521,1.007,0.711,0.332,0.583,0.550,��,0.9,��
2022/09/23,15:20,0.566,0.798,0.520,1.010,0.713,0.331,0.583,0.549,��쐼,1.9,��
2022/09/23,15:30,0.568,0.801,0.521,1.009,0.713,0.333,0.584,0.550,��쐼,2.0,��
2022/09/23,15:40,0.568,0.802,0.520,1.009,0.711,0.334,0.584,0.549,��,1.9,��
2022/09/23,15:50,0.569,0.802,0.521,1.008,0.712,0.333,0.584,0.549,��쓌,1.5,��
2022/09/23,16:00,0.567,0.800,0.522,1.008,0.712,0.334,0.584,0.550,��쓌,2.0,��
2022/09/23,16:10,0.567,0.801,0.522,1.008,0.711,0.333,0.582,0.550,�쓌,1.2,��
2022/09/23,16:20,0.567,0.801,0.521,1.007,0.710,0.333,0.581,0.550,�쓌,1.5,��
2022/09/23,16:30,0.567,0.803,0.521,1.009,0.711,0.333,0.583,0.550,�쓌,2.0,��
2022/09/23,16:40,0.567,0.802,0.521,1.011,0.713,0.334,0.584,0.550,��쓌,2.3,��
2022/09/23,16:50,0.568,0.803,0.522,1.011,0.713,0.332,0.584,0.549,�쓌,2.8,��
2022/09/23,17:00,0.568,0.800,0.520,1.008,0.712,0.332,0.583,0.550,��쓌,2.5,��
2022/09/23,17:10,0.569,0.802,0.521,1.008,0.713,0.333,0.585,0.550,�쓌,2.6,��
2022/09/23,17:20,0.568,0.802,0.522,1.009,0.712,0.333,0.585,0.550,�쓌,3.7,��
2022/09/23,17:30,0.567,0.801,0.522,1.010,0.713,0.332,0.584,0.551,�쓌,3.4,��
2022/09/23,17:40,0.566,0.804,0.522,1.011,0.711,0.333,0.584,0.551,�쓌,3.4,��
2022/09/23,17:50,0.569,0.805,0.522,1.006,0.711,0.334,0.585,0.551,�쓌,3.4,��
2022/09/23,18:00,0.569,0.805,0.522,1.009,0.711,0.334,0.585,0.551,�쓌,3.7,��
2022/09/23,18:10,0.569,0.805,0.523,1.011,0.712,0.334,0.586,0.549,�쓌,4.1,��
2022/09/23,18:20,0.569,0.806,0.522,1.011,0.711,0.333,0.583,0.551,��쓌,4.1,��
2022/09/23,18:30,0.570,0.804,0.523,1.008,0.711,0.334,0.584,0.549,��쓌,3.4,�L
2022/09/23,18:40,0.569,0.804,0.523,1.009,0.711,0.334,0.583,0.550,��,3.5,�L
2022/09/23,18:50,0.569,0.804,0.522,1.010,0.712,0.333,0.585,0.551,��쓌,2.9,��
2022/09/23,19:00,0.568,0.804,0.522,1.010,0.712,0.334,0.583,0.550,��,2.3,��
2022/09/23,19:10,0.569,0.805,0.524,1.010,0.711,0.333,0.583,0.551,��쓌,1.9,��
2022/09/23,19:20,0.569,0.805,0.522,1.008,0.710,0.334,0.583,0.551,��,1.7,��
2022/09/23,19:30,0.567,0.804,0.523,1.009,0.711,0.333,0.585,0.552,�쓌,1.7,��
2022/09/23,19:40,0.569,0.804,0.521,1.008,0.712,0.333,0.583,0.553,�쓌,1.4,��
2022/09/23,19:50,0.571,0.806,0.522,1.011,0.713,0.333,0.584,0.552,�쓌,0.9,��
2022/09/23,20:00,0.569,0.806,0.522,1.010,0.710,0.334,0.584,0.552,��쓌,1.2,�L
2022/09/23,20:10,0.570,0.806,0.522,1.011,0.710,0.332,0.583,0.550,�쓌,0.9,�L
2022/09/23,20:20,0.567,0.803,0.521,1.009,0.709,0.332,0.583,0.551,-,CALM,�L
2022/09/23,20:30,0.563,0.797,0.517,1.008,0.707,0.333,0.580,0.548,-,CALM,�L
2022/09/23,20:40,0.559,0.787,0.515,1.002,0.701,0.331,0.579,0.546,�쓌,1.2,�L
2022/09/23,20:50,0.559,0.788,0.512,0.998,0.698,0.329,0.576,0.545,�쓌,4.6,�L
2022/09/23,21:00,0.548,0.777,0.506,0.986,0.687,0.326,0.571,0.539,��쓌,3.8,�L
2022/09/23,21:10,0.543,0.769,0.503,0.976,0.679,0.324,0.568,0.540,��쓌,2.0,�L
2022/09/23,21:20,0.545,0.766,0.501,0.968,0.675,0.324,0.566,0.537,�k��,2.5,�L
2022/09/23,21:30,0.540,0.762,0.500,0.959,0.673,0.323,0.564,0.535,���k��,2.5,�L
2022/09/23,21:40,0.543,0.766,0.503,0.961,0.675,0.325,0.566,0.535,��,1.2,�L
2022/09/23,21:50,0.543,0.767,0.503,0.960,0.674,0.325,0.567,0.537,��,1.5,�L
2022/09/23,22:00,0.544,0.768,0.503,0.962,0.675,0.327,0.566,0.539,�쐼,0.6,�L
2022/09/23,22:10,0.547,0.770,0.504,0.962,0.677,0.327,0.567,0.537,�k��,3.0,�L
2022/09/23,22:20,0.546,0.771,0.505,0.962,0.679,0.326,0.567,0.537,�쓌,4.0,�L
2022/09/23,22:30,0.548,0.771,0.503,0.963,0.676,0.328,0.568,0.538,-,CALM,�L
2022/09/23,22:40,0.549,0.774,0.505,0.965,0.679,0.328,0.568,0.540,���k��,0.9,�L
2022/09/23,22:50,0.551,0.777,0.506,0.966,0.681,0.329,0.569,0.539,�k,1.1,�L
2022/09/23,23:00,0.551,0.774,0.506,0.969,0.678,0.328,0.569,0.540,��,1.1,�L
2022/09/23,23:10,0.546,0.767,0.502,0.960,0.673,0.326,0.564,0.536,���k��,2.5,�L
2022/09/23,23:20,0.545,0.765,0.501,0.957,0.671,0.324,0.565,0.535,���k��,1.5,�L
2022/09/23,23:30,0.544,0.765,0.502,0.956,0.670,0.324,0.565,0.535,��,0.9,�L
2022/09/23,23:40,0.542,0.766,0.503,0.958,0.672,0.327,0.564,0.536,���k��,0.9,�L
2022/09/23,23:50,0.546,0.770,0.503,0.960,0.674,0.328,0.568,0.535,-,CALM,�L
